User: anonymous   Login
Location: Kailua
(21.4020°N, 157.7390°W)
Time: 23:59:10
(UTC-10:00)
Language:

Cosmos 2297 Rocket - Orbit

View from above orbital plane
View from above orbital plane
View from above satellite
View from above satellite

Ground track
Ground track

The orbit data is extracted from the following two-line orbital elements,

1 23405U 94077B   18050.45402062 -.00000044 +00000-0 +19196-5 0  9998
2 23405 070.9816 055.5195 0004819 288.7851 071.2748 14.15200459200246
Epoch (UTC): 19 February 2018 10:53:47
Eccentricity: 0.0004819
inclination: 70.9816°
perigee height: 838 km
apogee height: 845 km
right ascension of ascending node: 55.5195°
argument of perigee: 288.7851°
revolutions per day: 14.15200459
mean anomaly at epoch: 71.2748°
orbit number at epoch: 20024

The dashed part of the orbit path shows where the satellite is in the earth's shadow,  

DLR